Location: Edoum�
(0.9447°N, 10.6482°E)
Time: 22:52:37
(UTC+00:00)

GEOS 3 Rocket - Pass Details

Date: 07 June 2020
Orbit: 772 x 847 km, 115.0° (Epoch: 10 July)

Event Time Altitude Azimuth Distance (km) Brightness Sun altitude
Rises 03:16:27 0° 152° (SSE) 3,247 6.8 -27.0°
Reaches altitude 10° 03:18:43 10° 153° (SSE) 2,323 6.0 -26.5°
Maximum altitude 03:23:45 87° 243° (WSW) 787 3.4 -25.4°
Drops below altitude 10° 03:28:50 10° 331° (NNW) 2,350 6.0 -24.2°
Sets 03:31:07 0° 331° (NNW) 3,288 6.7 -23.7°
